TimeEST,TemperatureF,Dew PointF,Humidity,Sea Level PressureIn,VisibilityMPH,Wind Direction,Wind SpeedMPH,Gust SpeedMPH,PrecipitationIn,Events,Conditions,WindDirDegrees,DateUTC
12:51 AM,50.0,46.9,89,30.10,5.0,WSW,11.5,17.3,N/A,,Overcast,250,2012-12-03 05:51:00
1:51 AM,50.0,46.9,89,30.11,5.0,Variable,3.5,-,N/A,,Overcast,0,2012-12-03 06:51:00
2:51 AM,50.0,46.0,86,30.12,5.0,North,-9999.0,-,N/A,,Overcast,0,2012-12-03 07:51:00
3:51 AM,50.0,46.0,86,30.12,5.0,Variable,3.5,-,N/A,,Overcast,0,2012-12-03 08:51:00
4:51 AM,50.0,45.0,83,30.13,5.0,North,-9999.0,-,N/A,,Haze,0,2012-12-03 09:51:00
5:51 AM,50.0,46.0,86,30.15,5.0,WSW,3.5,-,N/A,,Clear,240,2012-12-03 10:51:00
6:51 AM,48.9,46.0,90,30.17,5.0,Variable,3.5,-,N/A,,Clear,0,2012-12-03 11:51:00
7:51 AM,51.1,46.9,86,30.19,4.0,WNW,3.5,-,N/A,,Clear,300,2012-12-03 12:51:00
8:51 AM,53.1,46.9,80,30.20,4.0,WNW,4.6,-,N/A,,Haze,300,2012-12-03 13:51:00
9:51 AM,55.0,46.9,74,30.21,6.0,North,-9999.0,-,N/A,,Haze,0,2012-12-03 14:51:00
10:51 AM,57.0,46.9,69,30.20,6.0,Variable,3.5,-,N/A,,Haze,0,2012-12-03 15:51:00
11:51 AM,57.9,45.0,62,30.19,10.0,Calm,Calm,-,N/A,,Clear,0,2012-12-03 16:51:00
12:51 PM,60.1,44.1,55,30.17,10.0,Variable,4.6,-,N/A,,Clear,0,2012-12-03 17:51:00
1:51 PM,60.1,43.0,53,30.17,10.0,Variable,5.8,-,N/A,,Clear,0,2012-12-03 18:51:00
2:51 PM,60.1,43.0,53,30.18,10.0,WNW,5.8,-,N/A,,Clear,290,2012-12-03 19:51:00
3:51 PM,59.0,43.0,55,30.19,10.0,WNW,4.6,-,N/A,,Clear,300,2012-12-03 20:51:00
4:51 PM,57.9,43.0,58,30.21,10.0,Calm,Calm,-,N/A,,Clear,0,2012-12-03 21:51:00
5:51 PM,57.0,43.0,59,30.23,10.0,NNE,3.5,-,N/A,,Clear,20,2012-12-03 22:51:00
6:51 PM,55.9,42.1,60,30.25,10.0,NNE,3.5,-,N/A,,Clear,20,2012-12-03 23:51:00
7:51 PM,55.0,42.1,62,30.26,10.0,NE,3.5,-,N/A,,Clear,50,2012-12-04 00:51:00
8:51 PM,54.0,42.1,64,30.27,10.0,NE,4.6,-,N/A,,Clear,50,2012-12-04 01:51:00
9:51 PM,52.0,42.1,69,30.27,10.0,NE,3.5,-,N/A,,Clear,50,2012-12-04 02:51:00
10:51 PM,51.1,43.0,74,30.26,9.0,East,5.8,-,N/A,,Clear,80,2012-12-04 03:51:00
11:51 PM,50.0,43.0,77,30.27,10.0,Calm,Calm,-,N/A,,Clear,0,2012-12-04 04:51:00